Time,TemperatureF,DewpointF,PressureIn,WindDirection,WindDirectionDegrees,WindSpeedMPH,WindSpeedGustMPH,Humidity,HourlyPrecipIn,Conditions,Clouds,dailyrainin,SoftwareType,DateUTC
2013-02-01 00:10:00,50.4,34.8,30.06,SE,135,2.7,-999.0,55,-99.99,,,0.00,Acu-Link.com,2013-02-01 08:10:00,
2013-02-01 00:25:00,49.6,34.1,30.07,SSE,157,2.7,-999.0,55,-99.99,,,0.00,Acu-Link.com,2013-02-01 08:25:00,
2013-02-01 00:40:00,49.6,34.6,30.07,South,180,4.7,-999.0,56,-99.99,,,0.00,Acu-Link.com,2013-02-01 08:40:00,
2013-02-01 00:56:00,49.8,34.3,30.08,SE,135,4.2,-999.0,55,-99.99,,,0.00,Acu-Link.com,2013-02-01 08:56:00,
2013-02-01 01:17:00,49.5,34.5,30.08,SSE,157,2.2,-999.0,56,-99.99,,,0.00,Acu-Link.com,2013-02-01 09:17:00,
2013-02-01 01:32:00,48.9,33.9,30.08,SE,135,4.2,-999.0,56,-99.99,,,0.00,Acu-Link.com,2013-02-01 09:32:00,
2013-02-01 01:47:00,48.9,33.5,30.09,SSE,157,5.8,-999.0,55,-99.99,,,0.00,Acu-Link.com,2013-02-01 09:47:00,
2013-02-01 02:02:00,48.7,35.0,30.08,SSE,157,2.7,-999.0,59,-99.99,,,0.00,Acu-Link.com,2013-02-01 10:02:00,
2013-02-01 02:18:00,47.8,33.3,30.08,ENE,67,1.7,-999.0,57,-99.99,,,0.00,Acu-Link.com,2013-02-01 10:18:00,
2013-02-01 02:33:00,48.2,33.7,30.07,South,180,2.7,-999.0,57,-99.99,,,0.00,Acu-Link.com,2013-02-01 10:33:00,
2013-02-01 02:48:00,47.1,33.1,30.07,SSE,157,3.7,-999.0,58,-99.99,,,0.00,Acu-Link.com,2013-02-01 10:48:00,
2013-02-01 03:04:00,48.2,32.8,30.07,SSE,157,3.7,-999.0,55,-99.99,,,0.00,Acu-Link.com,2013-02-01 11:04:00,
2013-02-01 03:19:00,48.0,32.6,30.07,SE,135,3.7,-999.0,55,-99.99,,,0.00,Acu-Link.com,2013-02-01 11:19:00,
2013-02-01 03:34:00,46.8,32.4,30.07,SSE,157,4.2,-999.0,57,-99.99,,,0.00,Acu-Link.com,2013-02-01 11:34:00,
2013-02-01 03:49:00,47.3,32.0,30.07,SSE,157,2.7,-999.0,55,-99.99,,,0.00,Acu-Link.com,2013-02-01 11:49:00,
2013-02-01 04:05:00,47.7,33.2,30.07,South,180,4.2,-999.0,57,-99.99,,,0.00,Acu-Link.com,2013-02-01 12:05:00,
2013-02-01 04:20:00,47.3,32.0,30.07,SE,135,4.2,-999.0,55,-99.99,,,0.00,Acu-Link.com,2013-02-01 12:20:00,
2013-02-01 04:35:00,47.8,31.5,30.07,SE,135,3.2,-999.0,53,-99.99,,,0.00,Acu-Link.com,2013-02-01 12:35:00,
2013-02-01 04:50:00,49.3,33.8,30.06,SSE,157,2.7,-999.0,55,-99.99,,,0.00,Acu-Link.com,2013-02-01 12:50:00,
2013-02-01 05:06:00,47.3,31.5,30.08,East,90,3.2,-999.0,54,-99.99,,,0.00,Acu-Link.com,2013-02-01 13:06:00,
2013-02-01 05:21:00,45.5,32.8,30.09,South,180,3.2,-999.0,61,-99.99,,,0.00,Acu-Link.com,2013-02-01 13:21:00,
2013-02-01 05:36:00,45.9,32.0,30.09,ESE,112,2.7,-999.0,58,-99.99,,,0.00,Acu-Link.com,2013-02-01 13:36:00,
2013-02-01 05:51:00,48.0,32.2,30.10,SSE,157,4.2,-999.0,54,-99.99,,,0.00,Acu-Link.com,2013-02-01 13:51:00,
2013-02-01 06:07:00,46.0,31.2,30.11,SSE,157,3.7,-999.0,56,-99.99,,,0.00,Acu-Link.com,2013-02-01 14:07:00,
2013-02-01 06:22:00,46.4,30.7,30.10,SSE,157,6.3,-999.0,54,-99.99,,,0.00,Acu-Link.com,2013-02-01 14:22:00,
2013-02-01 06:37:00,48.2,30.9,30.10,SSE,157,4.2,-999.0,51,-99.99,,,0.00,Acu-Link.com,2013-02-01 14:37:00,
2013-02-01 06:52:00,47.1,34.8,30.09,SSE,157,3.2,-999.0,62,-99.99,,,0.00,Acu-Link.com,2013-02-01 14:52:00,
2013-02-01 07:08:00,48.2,31.4,30.09,SE,135,2.7,-999.0,52,-99.99,,,0.00,Acu-Link.com,2013-02-01 15:08:00,
2013-02-01 07:23:00,46.6,34.7,30.10,ESE,112,2.7,-999.0,63,-99.99,,,0.00,Acu-Link.com,2013-02-01 15:23:00,
2013-02-01 07:38:00,51.1,36.8,30.08,ESE,112,2.7,-999.0,58,-99.99,,,0.00,Acu-Link.com,2013-02-01 15:38:00,
2013-02-01 07:54:00,50.9,35.8,30.09,SE,135,3.2,-999.0,56,-99.99,,,0.00,Acu-Link.com,2013-02-01 15:54:00,
2013-02-01 08:09:00,54.5,36.7,30.10,ESE,112,3.2,-999.0,51,-99.99,,,0.00,Acu-Link.com,2013-02-01 16:09:00,
2013-02-01 08:24:00,54.9,37.6,30.09,ESE,112,0.0,-999.0,52,-99.99,,,0.00,Acu-Link.com,2013-02-01 16:24:00,
2013-02-01 08:40:00,58.1,43.4,30.10,ESE,112,0.0,-999.0,58,-99.99,,,0.00,Acu-Link.com,2013-02-01 16:40:00,
2013-02-01 08:55:00,57.9,38.3,30.10,West,270,2.7,-999.0,48,-99.99,,,0.00,Acu-Link.com,2013-02-01 16:55:00,
2013-02-01 09:10:00,58.6,37.3,30.09,WNW,292,2.7,-999.0,45,-99.99,,,0.00,Acu-Link.com,2013-02-01 17:10:00,
2013-02-01 09:25:00,60.6,39.1,30.10,WNW,292,2.7,-999.0,45,-99.99,,,0.00,Acu-Link.com,2013-02-01 17:25:00,
2013-02-01 09:41:00,60.4,38.4,30.10,NNW,337,1.7,-999.0,44,-99.99,,,0.00,Acu-Link.com,2013-02-01 17:41:00,
2013-02-01 09:56:00,62.1,36.8,30.08,West,270,1.7,-999.0,39,-99.99,,,0.00,Acu-Link.com,2013-02-01 17:56:00,
2013-02-01 10:11:00,64.9,36.6,30.10,SW,225,1.1,-999.0,35,-99.99,,,0.00,Acu-Link.com,2013-02-01 18:11:00,
2013-02-01 10:27:00,64.9,36.6,30.10,NW,315,2.2,-999.0,35,-99.99,,,0.00,Acu-Link.com,2013-02-01 18:27:00,
2013-02-01 10:42:00,66.9,35.3,30.09,West,270,4.7,-999.0,31,-99.99,,,0.00,Acu-Link.com,2013-02-01 18:42:00,
2013-02-01 10:57:00,67.6,37.5,30.08,West,270,4.2,-999.0,33,-99.99,,,0.00,Acu-Link.com,2013-02-01 18:57:00,
2013-02-01 11:12:00,68.7,34.3,30.08,NW,315,2.2,-999.0,28,-99.99,,,0.00,Acu-Link.com,2013-02-01 19:12:00,
2013-02-01 11:28:00,70.0,33.5,30.07,WNW,292,3.7,-999.0,26,-99.99,,,0.00,Acu-Link.com,2013-02-01 19:28:00,
2013-02-01 11:43:00,70.9,32.3,30.06,West,270,3.2,-999.0,24,-99.99,,,0.00,Acu-Link.com,2013-02-01 19:43:00,
2013-02-01 11:58:00,72.0,32.2,30.06,NNW,337,6.3,-999.0,23,-99.99,,,0.00,Acu-Link.com,2013-02-01 19:58:00,
2013-02-01 12:13:00,73.2,32.1,30.06,West,270,1.7,-999.0,22,-99.99,,,0.00,Acu-Link.com,2013-02-01 20:13:00,
2013-02-01 12:28:00,75.0,31.2,30.05,SSW,202,4.2,-999.0,20,-99.99,,,0.00,Acu-Link.com,2013-02-01 20:28:00,
2013-02-01 12:44:00,74.7,31.0,30.04,West,270,5.3,-999.0,20,-99.99,,,0.00,Acu-Link.com,2013-02-01 20:44:00,
2013-02-01 12:59:00,75.4,27.6,30.04,West,270,5.3,-999.0,17,-99.99,,,0.00,Acu-Link.com,2013-02-01 20:59:00,
2013-02-01 13:14:00,75.2,25.9,30.02,West,270,7.3,-999.0,16,-99.99,,,0.00,Acu-Link.com,2013-02-01 21:14:00,
2013-02-01 13:29:00,75.7,26.3,30.02,West,270,2.7,-999.0,16,-99.99,,,0.00,Acu-Link.com,2013-02-01 21:29:00,
2013-02-01 13:45:00,76.8,27.2,30.02,NNE,22,3.7,-999.0,16,-99.99,,,0.00,Acu-Link.com,2013-02-01 21:45:00,
2013-02-01 14:00:00,76.5,25.4,30.02,West,270,2.2,-999.0,15,-99.99,,,0.00,Acu-Link.com,2013-02-01 22:00:00,
2013-02-01 14:15:00,75.9,23.3,30.02,WNW,292,3.2,-999.0,14,-99.99,,,0.00,Acu-Link.com,2013-02-01 22:15:00,
2013-02-01 14:31:00,76.6,25.5,30.04,WSW,247,3.2,-999.0,15,-99.99,,,0.00,Acu-Link.com,2013-02-01 22:31:00,
2013-02-01 14:46:00,76.1,30.8,30.02,WSW,247,2.7,-999.0,19,-99.99,,,0.00,Acu-Link.com,2013-02-01 22:46:00,
2013-02-01 15:01:00,77.0,28.8,30.02,NNW,337,3.7,-999.0,17,-99.99,,,0.00,Acu-Link.com,2013-02-01 23:01:00,
2013-02-01 15:16:00,75.6,27.7,30.03,NW,315,4.2,-999.0,17,-99.99,,,0.00,Acu-Link.com,2013-02-01 23:16:00,
2013-02-01 15:32:00,75.9,28.0,30.01,West,270,5.8,-999.0,17,-99.99,,,0.00,Acu-Link.com,2013-02-01 23:32:00,
2013-02-01 15:47:00,75.4,27.6,30.02,WSW,247,2.2,-999.0,17,-99.99,,,0.00,Acu-Link.com,2013-02-01 23:47:00,
2013-02-01 16:02:00,75.0,25.8,30.02,West,270,5.3,-999.0,16,-99.99,,,0.00,Acu-Link.com,2013-02-02 00:02:00,
2013-02-01 16:17:00,76.1,28.1,30.02,WNW,292,5.3,-999.0,17,-99.99,,,0.00,Acu-Link.com,2013-02-02 00:17:00,
2013-02-01 16:33:00,74.1,30.5,30.02,West,270,2.2,-999.0,20,-99.99,,,0.00,Acu-Link.com,2013-02-02 00:33:00,
2013-02-01 16:48:00,73.0,29.6,30.02,WNW,292,1.7,-999.0,20,-99.99,,,0.00,Acu-Link.com,2013-02-02 00:48:00,
2013-02-01 17:03:00,71.6,29.6,30.02,West,270,1.7,-999.0,21,-99.99,,,0.00,Acu-Link.com,2013-02-02 01:03:00,
2013-02-01 17:18:00,69.6,36.8,30.02,South,180,0.0,-999.0,30,-99.99,,,0.00,Acu-Link.com,2013-02-02 01:18:00,
2013-02-01 17:34:00,68.0,36.2,30.03,SSE,157,3.7,-999.0,31,-99.99,,,0.00,Acu-Link.com,2013-02-02 01:34:00,
2013-02-01 17:49:00,67.1,37.0,30.04,SSW,202,2.2,-999.0,33,-99.99,,,0.00,Acu-Link.com,2013-02-02 01:49:00,
2013-02-01 18:05:00,65.8,35.9,30.06,SSE,157,3.2,-999.0,33,-99.99,,,0.00,Acu-Link.com,2013-02-02 02:05:00,
2013-02-01 18:20:00,64.6,37.7,30.06,SSE,157,2.7,-999.0,37,-99.99,,,0.00,Acu-Link.com,2013-02-02 02:20:00,
2013-02-01 18:35:00,63.1,39.6,30.05,SSE,157,3.2,-999.0,42,-99.99,,,0.00,Acu-Link.com,2013-02-02 02:35:00,
2013-02-01 18:50:00,62.1,39.3,30.06,SSE,157,3.7,-999.0,43,-99.99,,,0.00,Acu-Link.com,2013-02-02 02:50:00,
2013-02-01 19:06:00,61.3,39.2,30.06,SSE,157,3.7,-999.0,44,-99.99,,,0.00,Acu-Link.com,2013-02-02 03:06:00,
2013-02-01 19:21:00,60.4,39.0,30.07,SSE,157,4.2,-999.0,45,-99.99,,,0.00,Acu-Link.com,2013-02-02 03:21:00,
2013-02-01 19:36:00,60.4,38.4,30.08,SSE,157,5.3,-999.0,44,-99.99,,,0.00,Acu-Link.com,2013-02-02 03:36:00,
2013-02-01 19:51:00,59.7,38.3,30.08,SSE,157,6.8,-999.0,45,-99.99,,,0.00,Acu-Link.com,2013-02-02 03:51:00,
2013-02-01 20:07:00,59.7,37.8,30.09,South,180,4.2,-999.0,44,-99.99,,,0.00,Acu-Link.com,2013-02-02 04:07:00,
2013-02-01 20:22:00,59.0,37.7,30.08,South,180,5.3,-999.0,45,-99.99,,,0.00,Acu-Link.com,2013-02-02 04:22:00,
2013-02-01 20:38:00,57.6,38.1,30.10,South,180,3.7,-999.0,48,-99.99,,,0.00,Acu-Link.com,2013-02-02 04:38:00,
2013-02-01 20:53:00,56.8,37.8,30.09,SE,135,4.2,-999.0,49,-99.99,,,0.00,Acu-Link.com,2013-02-02 04:53:00,
2013-02-01 21:08:00,56.7,37.8,30.09,ESE,112,5.8,-999.0,49,-99.99,,,0.00,Acu-Link.com,2013-02-02 05:08:00,
2013-02-01 21:24:00,57.9,36.7,30.10,SE,135,6.3,-999.0,45,-99.99,,,0.00,Acu-Link.com,2013-02-02 05:24:00,
2013-02-01 21:40:00,56.8,36.8,30.11,South,180,4.2,-999.0,47,-99.99,,,0.00,Acu-Link.com,2013-02-02 05:40:00,
2013-02-01 21:55:00,55.8,36.9,30.10,ESE,112,4.2,-999.0,49,-99.99,,,0.00,Acu-Link.com,2013-02-02 05:55:00,
2013-02-01 22:10:00,54.7,36.9,30.11,South,180,4.7,-999.0,51,-99.99,,,0.00,Acu-Link.com,2013-02-02 06:10:00,
2013-02-01 22:25:00,54.7,36.4,30.11,SSE,157,4.2,-999.0,50,-99.99,,,0.00,Acu-Link.com,2013-02-02 06:25:00,
2013-02-01 22:41:00,54.9,36.1,30.12,ESE,112,4.2,-999.0,49,-99.99,,,0.00,Acu-Link.com,2013-02-02 06:41:00,
2013-02-01 22:56:00,54.3,36.1,30.12,South,180,3.7,-999.0,50,-99.99,,,0.00,Acu-Link.com,2013-02-02 06:56:00,
2013-02-01 23:11:00,53.8,35.6,30.11,ESE,112,4.2,-999.0,50,-99.99,,,0.00,Acu-Link.com,2013-02-02 07:11:00,
2013-02-01 23:26:00,52.9,35.8,30.11,South,180,3.7,-999.0,52,-99.99,,,0.00,Acu-Link.com,2013-02-02 07:26:00,
2013-02-01 23:41:00,52.7,35.6,30.11,SE,135,3.7,-999.0,52,-99.99,,,0.00,Acu-Link.com,2013-02-02 07:41:00,
2013-02-01 23:57:00,52.0,36.3,30.10,SSE,157,3.7,-999.0,55,-99.99,,,0.00,Acu-Link.com,2013-02-02 07:57:00,